Sibiu, Rumänien

09:18 AM EEST am 01. Mai 2017 (GMT +0300)
Sibiu

Wetter Verlauf für LRSB - April, 2017

Change the Weather History Date:

Freitag, April 21, 2017

  Actual Average (LRTM) Record (LRTM)
Temperature  
mittlereTemperatur 38 °F -  
Max. Temperatur 44 °F 66 °F 77 °F (2001)
Min.Temperatur 31 °F 45 °F 30 °F (2015)
Degree Days  
Heizgradtage 28    
Moisture  
Taupunkt 29 °F    
Average Humidity 77    
Maximum Humidity 100    
Minimum Humidity 26    
Niederschlag  
Niederschlag 0.01 inch 0.09 inch - ()
Luftdruck in Meereshöhe  
Luftdruck in Meereshöhe 30.13 inch    
Wind  
Windgeschwindigkeit 6 mph ()    
Max. Windgeschwindigkeit 14 mph    
Max Gust Speed -    
Sichtweite 4.4 Meilen    
Ereignisse Schneefall    
Averages and records for this station are not official NWS values.
T = Trace of Precipitation, MM = Missing Value Source: Averaged Metar Reports

Daily Weather History Graph

Daily Weather History Graph

Search for Another Location

Airport or City:

Trip Planner

Search our weather history database for the weather conditions in past years. The results will help you decide how hot, cold, wet, or windy it might be!

Date:

Astronomie

Apr. 21, 2017 Aufgang Untergang
Genaue Zeit 06:27 EEST 20:17 EEST
Bürgerliche Dämmerung 05:55 EEST 20:49 EEST
Nautische Dämmerung 05:16 EEST 21:28 EEST
Astronomische Dämmerung 04:34 EEST 22:11 EEST
Mond 03:53 EEST (4/21) 14:21 EEST (4/21)
Länge des sichtbaren Lichts 14h 54m
Tageslänge
13h 50m
Letztes Viertel, 31% of the Moon is Illuminated
Apr 21
Letztes Viertel
Apr 26
Neu
Mai 3
Erstes Viertel
Mai 11
Vollmond
Mai 19
Letztes Viertel

Hourly Weather History & Observations

Zeit (EEST) Temp. Windchill Taupunkt Feuchtigkeit Druck Sichtweite Wind Dir Windgeschwindigkeit Böengeschwindigkeit Precip Ereignisse Wetterzustand
12:00 AM 32 °F - 32 °F 98% 30.16 inch 1 mi Nordwest 4.5 mph - - Schneefall Leichter Schneefall
12:00 AM 32.0 °F 28.7 °F 30.2 °F 93% 30.06 inch 6.2 mi West 3.5 mph - N/A   Wolkig
12:30 AM 32.0 °F 28.7 °F 30.2 °F 93% 30.06 inch 3.1 mi West 3.5 mph - N/A Schneefall Leichter Schneefall
1:00 AM 32 °F - 31 °F 97% 30.17 inch 1 mi West-Nordwest 4.5 mph - - Schneefall Leichter Schneefall
1:00 AM 32.0 °F 28.7 °F 30.2 °F 93% 30.06 inch 3.1 mi West 3.5 mph - N/A Schneefall Leichter Schneefall
1:30 AM 32.0 °F 27.5 °F 30.2 °F 93% 30.09 inch 3.1 mi West-Südwest 4.6 mph - N/A Schneefall Leichter Schneefall
2:00 AM 32 °F - 31 °F 97% 30.17 inch 1 mi West 6.7 mph - - Schneefall Leichter Schneefall
2:00 AM 32.0 °F 27.5 °F 30.2 °F 93% 30.09 inch 3.1 mi West 4.6 mph - N/A Schneefall Leichter Schneefall
2:30 AM 32.0 °F 26.4 °F 30.2 °F 93% 30.06 inch 3.1 mi West 5.8 mph - N/A   Teils Wolkig
3:00 AM 32 °F - 32 °F 98% 30.17 inch 1 mi West-Nordwest 6.7 mph - - Schneefall Leichter Schneefall
3:00 AM - - - N/A% 30.06 inch 3.7 mi West 4.6 mph - N/A   Unbekannt
3:30 AM 32.0 °F 27.5 °F 30.2 °F 93% 30.06 inch 6.2 mi West 4.6 mph - N/A Schneefall Leichter Schneefall
4:00 AM 32 °F - 32 °F 98% 30.16 inch 1 mi West-Nordwest 6.7 mph - -   Dunst
4:30 AM 32.0 °F 26.4 °F 32.0 °F 100% 30.06 inch 3.7 mi West-Nordwest 5.8 mph - N/A Schneefall Leichter Schneefall
5:00 AM 32 °F - 32 °F 99% 30.16 inch 1 mi Nordwest 6.7 mph - -   Dunst
5:00 AM 32.0 °F 28.7 °F 30.2 °F 93% 30.06 inch 3.1 mi West-Nordwest 3.5 mph - N/A Schneefall Leichter Schneefall
5:30 AM 32.0 °F 28.7 °F 30.2 °F 93% 30.06 inch 3.1 mi West 3.5 mph - N/A Schneefall Leichter Schneefall
6:00 AM 32 °F - 32 °F 98% 30.15 inch 1 mi West 4.5 mph - - Schneefall Leichter Schneefall
6:00 AM 32.0 °F 27.5 °F 30.2 °F 93% 30.06 inch 3.1 mi West 4.6 mph - N/A Schneefall Leichter Schneefall
6:30 AM 32.0 °F 26.4 °F 32.0 °F 100% 30.06 inch 6.2 mi West 5.8 mph - N/A Schneefall Leichter Schneefall
7:00 AM 32 °F - 31 °F 97% 30.15 inch 1 mi West-Nordwest 6.7 mph - -   Dunst
7:00 AM 32.0 °F 26.4 °F 30.2 °F 93% 30.06 inch 6.2 mi West 5.8 mph - N/A   Wolkig
7:30 AM 32.0 °F 25.6 °F 30.2 °F 93% 30.09 inch 6.2 mi West 6.9 mph - N/A   Wolkig
8:00 AM 32 °F - 31 °F 93% 30.17 inch 2 mi West-Nordwest 6.7 mph - -   Dunst
8:00 AM 32.0 °F 26.4 °F 30.2 °F 93% 30.09 inch 6.2 mi West-Nordwest 5.8 mph - N/A   Wolkig
8:30 AM 32.0 °F 25.6 °F 30.2 °F 93% 30.09 inch 5.0 mi West-Nordwest 6.9 mph - N/A Schneefall Leichter Schneefall
9:00 AM 33 °F - 31 °F 90% 30.18 inch 2 mi Nordwest 8.9 mph - -   Dunst
9:00 AM 33.8 °F 27.7 °F 30.2 °F 87% 30.12 inch 1.9 mi West-Nordwest 6.9 mph - N/A Schneefall Leichter Schneefall
10:00 AM 33 °F - 32 °F 93% 30.20 inch 2 mi Nordwest 6.7 mph - - Schneefall Leichter Schneefall
10:00 AM 33.8 °F 25.3 °F 30.2 °F 87% 30.12 inch 2.2 mi West-Nordwest 11.5 mph - N/A Schneefall Leichter Schneefall
10:30 AM 33.8 °F 25.8 °F 32.0 °F 93% 30.12 inch 2.2 mi West-Nordwest 10.4 mph - N/A Schneefall Leichter Schneefall
11:00 AM 34 °F - 32 °F 90% 30.20 inch 2 mi West-Nordwest 8.9 mph - - Schneefall Leichter Schneefall
11:00 AM 33.8 °F 26.4 °F 32.0 °F 93% 30.12 inch 1.6 mi West 9.2 mph - N/A Schneefall Leichter Schneefall
11:30 AM 33.8 °F 26.4 °F 32.0 °F 93% 30.12 inch 2.5 mi West 9.2 mph - N/A Schneefall Leichter Schneefall
12:00 PM 35 °F - 32 °F 84% 30.21 inch 2 mi West 6.7 mph - -   Dunst
12:00 PM 35.6 °F 28.6 °F 32.0 °F 87% 30.12 inch 2.5 mi West-Südwest 9.2 mph - N/A Schneefall Leichter Schneefall
12:30 PM 35.6 °F 28.0 °F 32.0 °F 87% 30.12 inch 2.2 mi West 10.4 mph - N/A Schneefall Leichter Schneefall
1:00 PM 35 °F - 33 °F 88% 30.22 inch 2 mi West 8.9 mph - - Schneefall Leichter Schneefall
1:00 PM 37.4 °F 29.8 °F 32.0 °F 81% 30.15 inch 5.0 mi West-Südwest 11.5 mph - N/A   Wolkig
1:30 PM 37.4 °F 29.8 °F 32.0 °F 81% 30.15 inch 5.6 mi West 11.5 mph - N/A   Wolkig
2:00 PM 38 °F - 33 °F 77% 30.21 inch 6 mi West 8.9 mph - -   Bedeckt
2:00 PM 37.4 °F 29.3 °F 32.0 °F 81% 30.12 inch 6.2 mi West 12.7 mph - N/A   Teils Wolkig
2:30 PM 41.0 °F 33.9 °F 21.2 °F 45% 30.12 inch 6.2 mi Nord-Nordwest 12.7 mph - N/A   Wolkig
3:00 PM 41 °F - 23 °F 35% 30.19 inch 6 mi Nord-Nordwest 11.2 mph - -   Teils Wolkig
4:00 PM 42 °F - 24 °F 35% 30.19 inch 6 mi Nord-Nordwest 8.9 mph - -   Bedeckt
4:00 PM 42.8 °F 37.0 °F 23.0 °F 46% 30.12 inch 6.2 mi Nord-Nordwest 10.4 mph - N/A   Teils Wolkig
4:30 PM 42.8 °F 37.0 °F 19.4 °F 39% 30.12 inch 6.2 mi Nordwest 10.4 mph - N/A   Teils Wolkig
5:00 PM 43 °F - 24 °F 34% 30.17 inch 6 mi Nordwest 8.9 mph - -   Bedeckt
5:00 PM 42.8 °F 37.0 °F 21.2 °F 42% 30.12 inch 6.2 mi Nord-Nordwest 10.4 mph - N/A   Teils Wolkig
5:30 PM 42.8 °F 37.5 °F 19.4 °F 39% 30.12 inch 6.2 mi Nord-Nordwest 9.2 mph - N/A   Teils Wolkig
6:00 PM 43 °F - 20 °F 26% 30.17 inch 31 mi Nord-Nordwest 8.9 mph - -   Teils Wolkig
6:00 PM 42.8 °F 37.0 °F 19.4 °F 39% 30.12 inch 6.2 mi Nordwest 10.4 mph - N/A   Teils Wolkig
6:30 PM 42.8 °F 35.8 °F 21.2 °F 42% 30.12 inch 6.2 mi West-Nordwest 13.8 mph - N/A   Teils Wolkig
7:00 PM 43 °F - 23 °F 31% 30.17 inch 31 mi West-Nordwest 8.9 mph - -   Teils Wolkig
7:00 PM 44.6 °F 39.2 °F 24.8 °F 46% 30.12 inch 6.2 mi West-Nordwest 10.4 mph - N/A   Teils Wolkig
7:30 PM 41.0 °F 35.2 °F 26.6 °F 57% 30.12 inch 6.2 mi West 9.2 mph - N/A   Teils Wolkig
8:00 PM 41 °F - 26 °F 42% 30.17 inch 31 mi West 6.7 mph - -   Teils Wolkig
8:30 PM 35.6 °F 29.9 °F 28.4 °F 75% 30.12 inch 6.2 mi West-Südwest 6.9 mph - N/A   Wolkig
9:00 PM 35 °F - 30 °F 74% 30.21 inch 12 mi West-Südwest 4.5 mph - -   Teils Wolkig
9:00 PM 35.6 °F 29.2 °F 30.2 °F 81% 30.15 inch 6.2 mi West-Südwest 8.1 mph - N/A   Wolkig
9:30 PM 35.6 °F 29.9 °F 30.2 °F 81% 30.15 inch 6.2 mi West 6.9 mph - N/A   Wolkig
10:00 PM 36 °F - 32 °F 78% 30.23 inch 12 mi West 4.5 mph - -   Wolkig
10:30 PM 37.4 °F 31.4 °F 28.4 °F 70% 30.18 inch 6.2 mi West-Nordwest 8.1 mph - N/A   Teils Wolkig
11:00 PM 38 °F - 27 °F 54% 30.24 inch 12 mi West 6.7 mph - -   Teils Wolkig
11:00 PM 35.6 °F 32.8 °F 28.4 °F 75% 30.18 inch 6.2 mi Nord-Nordwest 3.5 mph - N/A   Wolkig
11:30 PM 35.6 °F 29.2 °F 26.6 °F 70% 30.18 inch 6.2 mi West 8.1 mph - N/A   Teils Wolkig